Other Public Products
Issued by NWS Charleston, SC

Current Version | Previous Version | Graphics & Text | Print | Product List | Glossary On
Versions: 1 2 3 4 5 6 7 8 9 10 11 12 13 14 15 16 17 18 19 20 21 22 23 24 25 26 27 28 29 30 31 32 33 34 35 36 37 38 39 40 41 42 43 44 45 46 47 48 49 50
000
FPUS82 KCHS 262011
OPUCHS

TEST...KCHS/KSAV Gateway Observations...TEST
National Weather Service Charleston SC
300 PM EST SUN FEB 26 2017

NOTE: "fair" indicates few or no clouds below 12,000 feet with no
significant weather and/or obstructions to visibility.

SCZ050-WAZ558-NCZ071-TXZ119-213-PAZ071-DCZ001-FLZ074-172-MI076-
NYZ176-178-MAZ016-IL014-TNZ027-NJZ106-GAZ044-MD014-262100-
...Gateway Observations for Charleston International...

CITY           SKY/WX    TMP DP  RH WIND       PRES   REMARKS
Chas Airport   SUNNY     66  18  15 VRB5      30.18F
Seattle        LGT RAIN  38  36  92 E10       29.69S WCI  31
Charlotte      MOSUNNY   55  13  18 SW6       30.18S
Dallas DFW     CLOUDY    62  50  64 S20G25    29.89F
Dallas Love    CLOUDY    62  49  62 SW8       29.91F
Philladelphia  MOSUNNY   42  14  32 W20       30.11R
Wash National  MOSUNNY   48  17  29 W17       30.15R
Baltimore      MOSUNNY   44  18  35 W12G21    30.14R
Miami          MOSUNNY   81  63  54 E12       30.07F
Detroit        PTSUNNY   40  19  43 SW18      30.03F WCI  31
Newark         MOSUNNY   44  15  31 NW15      30.05R
Laguardia      MOSUNNY   44  13  28 W15G25    30.04R
J F K          MOSUNNY   44  17  33 NW16G23   30.05R
Boston Logan   MOSUNNY   43  17  35 W20G29    29.88R
Ft. Lauderdale MOSUNNY   81  66  60 NE15      30.07S
Chicago O`Hare MOSUNNY   47  20  34 SW24G35   29.92F
Chicago Midway MOSUNNY   48  19  31 SW22G35   29.94F
Houston Bush   PTSUNNY   73  57  57 SE20      29.97F
Houston Hobby  CLOUDY    72  58  61 S12G23    29.96F
Nashville      PTSUNNY   54  15  21 SE12      30.16F
Atlanta        MOSUNNY   60  15  17 N7        30.18F

$$

GAZ044-118-TXZ119-213-NCZ071-DCZ001-MDZ014-506-PAZ021-071-NJZ106-
NYZ176-178-MAZ106-OHZ011-021-055-MIZ076-KYZ091-ILZ014-INZ047-
MNZ060-ONZ431-262100-
...Gateway Observations for Savannah International...

CITY           SKY/WX    TMP DP  RH WIND       PRES   REMARKS
Savannah Arpt  SUNNY     68  18  14 NW8       30.19F
Atlanta        MOSUNNY   60  15  17 N7        30.18F
Charlotte      MOSUNNY   55  13  18 SW6       30.18S
Dallas DFW     CLOUDY    62  50  64 S20G25    29.89F
Houston Bush   PTSUNNY   73  57  57 SE20      29.97F
Wash National  MOSUNNY   48  17  29 W17       30.15R
Wash Dulles    MOSUNNY   47  17  30 NW9       30.14R
Baltimore      MOSUNNY   44  18  35 W12G21    30.14R
Philadelphia   MOSUNNY   42  14  32 W20       30.11R
Newark         MOSUNNY   44  15  31 NW15      30.05R
Laguardia      MOSUNNY   44  13  28 W15G25    30.04R
J F K          MOSUNNY   44  17  33 NW16G23   30.05R
Boston         MOSUNNY   43  17  35 W20G29    29.88R
Pittsburg      MOSUNNY   37  16  42 W10       30.13S WCI  30
Akron          MOSUNNY   38  17  42 SW10G21   30.10F WCI  31
Cleveland      SUNNY     40  17  39 SW14G22   30.11F WCI  32
Cincinnati     MOSUNNY   45  13  27 SW9G16    30.14F
Columbus       SUNNY     40  18  40 SW13      30.16S WCI  33
Detroit        PTSUNNY   40  19  43 SW18      30.03F WCI  31
Chicago O`Hare MOSUNNY   47  20  34 SW24G35   29.92F
Minneapolis    PTSUNNY   38  16  40 W22G31    29.79S WCI  27
Indianapolis   PTSUNNY   45  13  27 SW18      30.10F
Toronto Canada PTSUNNY   36  16  44 SW16G22   30.01F WCI  26

$$




USA.gov is the U.S. government's official web portal to all federal, state and local government web resources and services.